[[{"header":{"parameterUnit":"m.s-1","parameterCategory":1,"la1":30.2991,"la2":30.254,"lo1":-89.0895,"lo2":-89.0444,"dy":0.0017,"dx":0.0017,"nx":28,"ny":28,"refTime":"2024-03-27T09:00:00:Z","depth":0,"parameterNumber":2,"parameterNumberName":"U-component_of_WINDS"},"data":[0,0,0,0,0,0,0,0,0,0,0,0,0,0,0,0,0,0,0,0,0,0,0,0,0,0,0,0,0,0,0,0,0,0,0,0,0,0,0,0,0,0,0,0,0,0,0,0,0,0,0,0,0,0,0,0,0,0,0.5335,0.5334,0,0.532,0.532,0.5319,0.5317,0.5317,0.5317,0.5317,0.5301,0.53,0.53,0,0,0,0,0,0,0,0,0,0,0,0,0,0.5361,0.536,0.5335,0.5334,0.5334,0.532,0.532,0.5319,0.5317,0.5317,0.5317,0.5317,0.5301,0.53,0.53,0,0,0,0,0,0,0,0,0,0,0,0,0,0.5348,0.536,0.5335,0.5331,0.5331,0.532,0.532,0.5319,0.5317,0.5317,0.5317,0.5317,0.5301,0.5301,0.53,0.5291,0,0,0.5297,0.5297,0,0,0,0,0,0,0,0,0.5349,0.5347,0.5332,0.5331,0.5331,0.532,0.5323,0.531,0.5317,0.5322,0.5317,0.5318,0.5307,0.5306,0.5303,0.529,0.5289,0.5297,0.5297,0.5296,0.5296,0,0,0,0,0,0,0,0.535,0.5348,0.5329,0.5332,0.5331,0.5331,0.5329,0.532,0.5314,0.5322,0.5321,0.532,0.5307,0.5303,0.5302,0.5289,0.5297,0.5296,0.5296,0.5296,0.527,0.527,0,0,0,0,0,0,0.5351,0.5348,0.5329,0.5328,0.5341,0.533,0.5328,0.5324,0.5314,0.5313,0.532,0.532,0.5305,0.5303,0.5302,0.5291,0.5296,0.5295,0.5295,0.527,0.527,0.527,0,0,0,0,0,0,0.5352,0.5349,0.533,0.5338,0.5336,0.5329,0.5324,0.5323,0.532,0.5312,0.5311,0.5317,0.5305,0.5303,0.5294,0.5291,0.5295,0.5294,0.527,0.527,0.527,0.527,0,0,0,0,0,0,0.5352,0.535,0.5346,0.5338,0.5335,0.5322,0.5324,0.5323,0.5318,0.5318,0.531,0.5308,0.5305,0.5295,0.5293,0.529,0.5294,0.5271,0.527,0.527,0.527,0.527,0.5269,0,0,0,0,0,0.5353,0.5346,0.5346,0.5343,0.533,0.5322,0.532,0.5316,0.5318,0.5314,0.531,0.5309,0.5292,0.5294,0.5292,0.5288,0.5271,0.527,0.527,0.527,0.527,0.5269,0,0,0,0,0,0,0.5352,0.5345,0.5344,0.5334,0.5329,0.5321,0.5316,0.5316,0.5309,0.5309,0.5305,0.5303,0.5295,0.5291,0.5294,0.528,0.5281,0.528,0.5282,0.5282,0.5281,0.5282,0.5293,0,0,0,0,0,0.5351,0.5345,0.5338,0.533,0.5327,0.5323,0.5319,0.5317,0.5311,0.5308,0.5303,0.5297,0.5291,0.5286,0.5279,0.527,0.5269,0.5266,0.5266,0.5266,0.5265,0.5261,0.526,0.5268,0.5268,0.5268,0,0,0.5347,0.5343,0.5339,0.533,0.5325,0.5319,0.532,0.5313,0.5309,0.5307,0.5298,0.5295,0.5288,0.5279,0.5275,0.5275,0.5262,0.5265,0.5265,0.5264,0.526,0.5259,0.5259,0.5268,0.5268,0.5268,0,0,0.5338,0.5334,0.5327,0.5323,0.5317,0.5314,0.5313,0.5306,0.5304,0.5296,0.5295,0.5289,0.5278,0.5273,0.527,0.5262,0.5261,0.526,0.5257,0.5253,0.5253,0.5252,0.525,0.5249,0.5259,0.5259,0.5259,0,0.5335,0.5325,0.5323,0.5317,0.5313,0.5313,0.5306,0.5302,0.5294,0.5292,0.5293,0.528,0.5275,0.5266,0.5264,0.5261,0.5259,0.526,0.5253,0.5252,0.5252,0.5249,0.5248,0.5259,0.5259,0.5259,0.5259,0,0.5322,0.5316,0.5311,0.5304,0.53,0.5293,0.5291,0.5287,0.5286,0.5284,0.5276,0.5271,0.5264,0.5262,0.526,0.5253,0.5253,0.5254,0.5255,0.5251,0.5249,0.5248,0.5259,0.5259,0.5259,0.5259,0,0,0.5309,0.5303,0.5301,0.5299,0.5294,0.5289,0.5283,0.5277,0.5274,0.5269,0.5264,0.5256,0.5257,0.5253,0.5251,0.5248,0.5243,0.5249,0.5249,0.5248,0.5236,0.5235,0.5234,0.5243,0.5243,0.5243,0.5236,0,0.5299,0.5289,0.5288,0.5278,0.5273,0.5274,0.5269,0.5265,0.5263,0.5259,0.5257,0.5251,0.5253,0.525,0.5247,0.5244,0.5241,0.5245,0.5238,0.5238,0.5239,0.5233,0.5231,0.5225,0.5235,0.5235,0.5235,0,0.5285,0.5281,0.5272,0.5269,0.5267,0.5262,0.5258,0.5253,0.525,0.5249,0.5246,0.5245,0.524,0.5243,0.5235,0.5239,0.5236,0.5235,0.5235,0.5233,0.5236,0.5231,0.5223,0.5222,0.5234,0.5234,0.5234,0,0.5277,0.5269,0.5263,0.5261,0.5257,0.5254,0.5253,0.525,0.5247,0.5243,0.5241,0.5237,0.5234,0.5231,0.523,0.5232,0.5223,0.5225,0.5222,0.5222,0.5219,0.5219,0.5211,0.5219,0.5219,0.5219,0.5219,0,0.5266,0.526,0.526,0.5255,0.525,0.5249,0.5243,0.5242,0.524,0.5236,0.5236,0.5233,0.5231,0.5228,0.5227,0.5222,0.522,0.522,0.5219,0.5219,0.5219,0.5217,0.5217,0.5218,0.5218,0.5219,0.5219,0,0.5254,0.5254,0.5247,0.5245,0.5245,0.524,0.5239,0.5235,0.5235,0.523,0.5229,0.5227,0.5223,0.5222,0.5217,0.5217,0.521,0.5211,0.5212,0.5211,0.5208,0.5208,0.5197,0.5196,0.5205,0.5205,0.5205,0,0.5246,0.5242,0.524,0.5238,0.5237,0.5233,0.5231,0.5231,0.5229,0.5226,0.5223,0.522,0.5216,0.521,0.5209,0.5205,0.5205,0.5202,0.5205,0.5205,0.5205,0.5205,0.5205,0.5201,0.5201,0.5201,0.5201,0,0.5233,0.5233,0.523,0.5228,0.5225,0.5223,0.5221,0.5219,0.522,0.5217,0.5214,0.5211,0.5207,0.5204,0.5201,0.5199,0.52,0.52,0.5199,0.5198,0.5199,0.5199,0.521,0.52,0.52,0.52,0.52,0.52,0.5223,0.522,0.5218,0.5215,0.5214,0.5213,0.521,0.521,0.5207,0.5204,0.5205,0.5201,0.52,0.5196,0.5195,0.5192,0.5193,0.5192,0.5191,0.5191,0.5191,0.5201,0.5192,0.5192,0.5192,0.5192,0.5192,0,0.5209,0.5209,0.5206,0.5204,0.5202,0.5205,0.5203,0.5201,0.5198,0.5197,0.5195,0.5192,0.5189,0.5189,0.5186,0.5184,0.5185,0.5184,0.5183,0.5183,0.519,0.5191,0.5184,0.5184,0.5184,0.5184,0.5184,0.5184,0.5201,0.5196,0.5197,0.5193,0.5193,0.519,0.5189,0.5188,0.5187,0.5184,0.5182,0.5182,0.5182,0.518,0.5178,0.5178,0.5177,0.5176,0.5176,0.5182,0.5183,0.5183,0.5184,0.5176,0.5176,0.517,0.517,0.5169]},{"header":{"parameterUnit":"m.s-1","parameterCategory":1,"la1":30.2991,"la2":30.254,"lo1":-89.0895,"lo2":-89.0444,"dy":0.0017,"dx":0.0017,"nx":28,"ny":28,"refTime":"2024-03-27T09:00:00:Z","depth":0,"parameterNumber":3,"parameterNumberName":"V-component_of_WINDS"},"data":[0,0,0,0,0,0,0,0,0,0,0,0,0,0,0,0,0,0,0,0,0,0,0,0,0,0,0,0,0,0,0,0,0,0,0,0,0,0,0,0,0,0,0,0,0,0,0,0,0,0,0,0,0,0,0,0,0,0,-5.284,-5.284,0,-5.2849,-5.2849,-5.285,-5.2787,-5.2786,-5.2784,-5.2782,-5.279,-5.2791,-5.2793,0,0,0,0,0,0,0,0,0,0,0,0,0,-5.2766,-5.2768,-5.284,-5.284,-5.284,-5.2849,-5.285,-5.285,-5.2788,-5.2785,-5.2783,-5.2781,-5.2789,-5.2791,-5.2793,0,0,0,0,0,0,0,0,0,0,0,0,0,-5.2789,-5.2769,-5.284,-5.2811,-5.2808,-5.2849,-5.285,-5.285,-5.2788,-5.2785,-5.2783,-5.278,-5.2788,-5.2791,-5.2794,-5.2863,0,0,-5.2802,-5.2803,0,0,0,0,0,0,0,0,-5.2788,-5.2792,-5.2815,-5.2813,-5.281,-5.2815,-5.2826,-5.2854,-5.2789,-5.2796,-5.2782,-5.2779,-5.28,-5.2801,-5.2809,-5.2863,-5.2864,-5.2802,-5.2804,-5.2805,-5.2806,0,0,0,0,0,0,0,-5.2787,-5.2791,-5.2844,-5.2815,-5.2812,-5.2796,-5.2796,-5.2831,-5.2812,-5.2795,-5.279,-5.2792,-5.2798,-5.2806,-5.2809,-5.2864,-5.2802,-5.2805,-5.2806,-5.2807,-5.2976,-5.2978,0,0,0,0,0,0,-5.2789,-5.279,-5.2843,-5.2844,-5.2792,-5.28,-5.28,-5.2816,-5.2812,-5.2809,-5.2795,-5.2789,-5.2803,-5.2805,-5.2809,-5.289,-5.2805,-5.2808,-5.2809,-5.2973,-5.2976,-5.2979,0,0,0,0,0,0,-5.2788,-5.2795,-5.2843,-5.2816,-5.2821,-5.2804,-5.2822,-5.2817,-5.2826,-5.2812,-5.2808,-5.2807,-5.2801,-5.2805,-5.285,-5.2889,-5.2809,-5.2811,-5.297,-5.2974,-5.2978,-5.3052,0,0,0,0,0,0,-5.2786,-5.2794,-5.2821,-5.2817,-5.2823,-5.2885,-5.2824,-5.2819,-5.2831,-5.2824,-5.2822,-5.2819,-5.2799,-5.2846,-5.2853,-5.2891,-5.2813,-5.2966,-5.2972,-5.2977,-5.3046,-5.3059,-5.3069,0,0,0,0,0,-5.2784,-5.2841,-5.2823,-5.2829,-5.2856,-5.2887,-5.2891,-5.2867,-5.2834,-5.286,-5.2852,-5.2819,-5.2884,-5.2852,-5.2858,-5.2898,-5.2963,-5.297,-5.2976,-5.3041,-5.3056,-5.3069,0,0,0,0,0,0,-5.2849,-5.284,-5.282,-5.2878,-5.2884,-5.2877,-5.2909,-5.2884,-5.2899,-5.2892,-5.2861,-5.2862,-5.2912,-5.2909,-5.2874,-5.2965,-5.2918,-5.2926,-5.2965,-5.2979,-5.299,-5.2989,-5.2816,0,0,0,0,0,-5.287,-5.2898,-5.2888,-5.294,-5.2945,-5.2927,-5.294,-5.2921,-5.2926,-5.2928,-5.2922,-5.2928,-5.2949,-5.2964,-5.2983,-5.3046,-5.3044,-5.3077,-5.3088,-5.3097,-5.3104,-5.3137,-5.3152,-5.3,-5.3,-5.3,0,0,-5.2914,-5.2913,-5.2932,-5.2953,-5.2956,-5.2984,-5.2929,-5.2961,-5.2982,-5.2933,-5.2975,-5.2972,-5.2976,-5.303,-5.3054,-5.303,-5.3146,-5.3106,-5.3113,-5.3115,-5.3145,-5.316,-5.3172,-5.3005,-5.3004,-5.3003,0,0,-5.3009,-5.3011,-5.3055,-5.3059,-5.3064,-5.3052,-5.3063,-5.306,-5.3056,-5.3098,-5.3062,-5.3086,-5.3123,-5.3128,-5.3135,-5.3233,-5.3203,-5.324,-5.3299,-5.3331,-5.3343,-5.3354,-5.3388,-5.3401,-5.3247,-5.3247,-5.3247,0,-5.3063,-5.3105,-5.308,-5.3115,-5.3125,-5.3084,-5.3127,-5.3132,-5.3143,-5.3151,-5.3124,-5.3171,-5.317,-5.3225,-5.3249,-5.3257,-5.3267,-5.3239,-5.3344,-5.3354,-5.3363,-5.3395,-5.3409,-5.3251,-5.3251,-5.325,-5.325,0,-5.317,-5.32,-5.3235,-5.3247,-5.3262,-5.3301,-5.3282,-5.3299,-5.328,-5.327,-5.3314,-5.3313,-5.3331,-5.3342,-5.3323,-5.3395,-5.338,-5.3349,-5.33,-5.3382,-5.3412,-5.3424,-5.3258,-5.3256,-5.3255,-5.3254,0,0,-5.3305,-5.3305,-5.3318,-5.3323,-5.3326,-5.3349,-5.3386,-5.3404,-5.342,-5.3429,-5.3459,-5.3492,-5.3464,-5.3472,-5.3453,-5.3482,-5.3559,-5.3447,-5.3447,-5.3468,-5.3637,-5.366,-5.3675,-5.354,-5.3543,-5.3544,-5.3637,0,-5.3397,-5.3462,-5.3441,-5.3506,-5.3533,-5.3494,-5.3526,-5.3531,-5.3524,-5.3545,-5.3536,-5.356,-5.3521,-5.3526,-5.3553,-5.3544,-5.3593,-5.3537,-5.3567,-5.3569,-5.3567,-5.3691,-5.3715,-5.3802,-5.3649,-5.3651,-5.3652,0,-5.3513,-5.3528,-5.3596,-5.3595,-5.3606,-5.3635,-5.3651,-5.3672,-5.3677,-5.3669,-5.3679,-5.3655,-5.3691,-5.3643,-5.3692,-5.3655,-5.3666,-5.3664,-5.3666,-5.3668,-5.3615,-5.3695,-5.383,-5.3843,-5.367,-5.3669,-5.3667,0,-5.3604,-5.3641,-5.3687,-5.3693,-5.3693,-5.3715,-5.3715,-5.3718,-5.3731,-5.3744,-5.3752,-5.3769,-5.3779,-5.3792,-5.3773,-5.374,-5.3824,-5.3775,-5.3819,-5.3819,-5.3837,-5.3836,-5.3975,-5.3846,-5.3846,-5.3845,-5.3845,0,-5.3709,-5.3752,-5.3728,-5.3756,-5.3803,-5.3778,-5.3825,-5.3821,-5.3824,-5.385,-5.3818,-5.3843,-5.3816,-5.3838,-5.3823,-5.3866,-5.387,-5.3865,-5.386,-5.3867,-5.3868,-5.3873,-5.3867,-5.3849,-5.3848,-5.3847,-5.3847,0,-5.3818,-5.3804,-5.3851,-5.3848,-5.3848,-5.3883,-5.3879,-5.3905,-5.3895,-5.3929,-5.3935,-5.392,-5.3945,-5.3927,-5.3952,-5.3941,-5.3997,-5.3985,-5.3996,-5.3992,-5.4036,-5.4032,-5.4183,-5.4201,-5.4061,-5.4063,-5.4064,0,-5.3885,-5.3917,-5.3918,-5.3934,-5.3937,-5.3963,-5.3976,-5.3953,-5.3968,-5.3977,-5.4001,-5.4023,-5.404,-5.4081,-5.4072,-5.409,-5.4077,-5.4129,-5.408,-5.4086,-5.4077,-5.4076,-5.4078,-5.4139,-5.414,-5.4142,-5.4143,0,-5.4006,-5.3998,-5.4018,-5.4037,-5.4054,-5.4067,-5.4077,-5.4092,-5.4069,-5.4088,-5.4113,-5.4126,-5.4151,-5.4174,-5.4189,-5.4189,-5.4162,-5.4159,-5.4169,-5.4177,-5.4182,-5.4179,-5.4022,-5.4155,-5.4154,-5.4153,-5.4152,-5.4152,-5.4096,-5.4123,-5.4128,-5.4152,-5.4158,-5.4169,-5.4192,-5.4187,-5.4208,-5.4227,-5.4213,-5.4243,-5.4247,-5.4265,-5.4269,-5.4292,-5.427,-5.4286,-5.429,-5.4294,-5.43,-5.4179,-5.4295,-5.4294,-5.4294,-5.4294,-5.4293,0,-5.4214,-5.4216,-5.4238,-5.4255,-5.4274,-5.4248,-5.4259,-5.4276,-5.4304,-5.431,-5.4328,-5.4357,-5.4379,-5.4372,-5.4391,-5.4411,-5.4399,-5.4416,-5.4414,-5.4415,-5.4319,-5.4307,-5.4426,-5.4426,-5.4426,-5.4426,-5.4426,-5.4426,-5.4278,-5.4322,-5.4315,-5.4362,-5.4363,-5.4393,-5.4401,-5.4411,-5.4416,-5.4451,-5.4469,-5.4465,-5.4466,-5.4485,-5.4504,-5.4501,-5.4509,-5.4532,-5.4524,-5.4435,-5.4421,-5.4409,-5.4398,-5.4534,-5.4534,-5.4618,-5.4619,-5.462]}]]